Estherville, IA

8:16 AM CDT on April 30, 2017 (GMT -0500)
Estherville Municipal

Weather History for KEST - May, 2014

Change the Weather History Date:

Saturday, May 17, 2014

  Actual Average Record
Temperature  
Mean Temperature 50 °F 59 °F  
Max Temperature 67 °F 71 °F 90 °F (1987)
Min Temperature 32 °F 47 °F 32 °F (2014)
Degree Days  
Heating Degree Days 15 7  
Month to date heating degree days 236 163  
Since 1 July heating degree days 8519 7624  
Cooling Degree Days 0 1  
Month to date cooling degree days 4 11  
Year to date cooling degree days 4 13  
Moisture  
Dew Point 29 °F    
Average Humidity 51    
Maximum Humidity 76    
Minimum Humidity 26    
Precipitation  
Precipitation 0.00 in 0.13 in 1.96 in (2000)
Month to date precipitation 1.33 2.15  
Sea Level Pressure  
Sea Level Pressure 30.09 in    
Wind  
Wind Speed 12 mph (WSW)    
Max Wind Speed 22 mph    
Max Gust Speed 28 mph    
Visibility 10 miles    
Events      
T = Trace of Precipitation, MM = Missing Value Source: NWS Daily Summary

Daily Weather History Graph

Daily Weather History Graph

Search for Another Location

Airport or City:

Trip Planner

Search our weather history database for the weather conditions in past years. The results will help you decide how hot, cold, wet, or windy it might be!

Date:

Astronomy

May. 17, 2014 Rise Set
Actual Time 5:52 AM CDT 8:38 PM CDT
Civil Twilight 5:19 AM CDT 9:12 PM CDT
Nautical Twilight 4:37 AM CDT 9:54 PM CDT
Astronomical Twilight 3:49 AM CDT 10:42 PM CDT
Moon 11:39 PM CDT (5/17) 8:36 AM CDT (5/17)
Length of Visible Light 15h 52m
Length of Day
14h 46m
Waning Gibbous, 89% of the Moon is Illuminated
May 17
Waning Gibbous
May 21
Last Quarter
May 28
New
Jun 5
First Quarter
Jun 12
Full

Hourly Weather History & Observations

Time (CDT) Temp. Windchill Dew Point Humidity Pressure Visibility Wind Dir Wind Speed Gust Speed Precip Events Conditions
12:52 AM 36.0 °F 30.3 °F 27.0 °F 70% 30.13 in 10.0 mi WSW 6.9 mph - N/A   Clear
1:52 AM 34.0 °F 26.6 °F 27.0 °F 75% 30.12 in 10.0 mi SW 9.2 mph - N/A   Clear
2:52 AM 34.0 °F 28.0 °F 26.1 °F 73% 30.12 in 10.0 mi WSW 6.9 mph - N/A   Clear
4:52 AM 36.0 °F 31.1 °F 27.0 °F 70% 30.12 in 10.0 mi WSW 5.8 mph - N/A   Overcast
5:52 AM 36.0 °F 30.3 °F 28.0 °F 73% 30.12 in 10.0 mi WSW 6.9 mph - N/A   Overcast
6:52 AM 37.0 °F 32.4 °F 30.0 °F 76% 30.12 in 10.0 mi WSW 5.8 mph - N/A   Partly Cloudy
7:52 AM 45.0 °F 40.1 °F 30.0 °F 56% 30.12 in 10.0 mi WSW 9.2 mph - N/A   Overcast
8:52 AM 52.0 °F - 28.9 °F 41% 30.12 in 10.0 mi WSW 18.4 mph - N/A   Partly Cloudy
9:52 AM 55.9 °F - 28.0 °F 34% 30.12 in 10.0 mi WSW 16.1 mph 23.0 mph N/A   Mostly Cloudy
10:52 AM 59.0 °F - 28.0 °F 31% 30.10 in 10.0 mi West 15.0 mph 24.2 mph N/A   Mostly Cloudy
11:52 AM 62.1 °F - 30.9 °F 31% 30.09 in 10.0 mi West 15.0 mph - N/A   Mostly Cloudy
12:52 PM 63.0 °F - 33.1 °F 33% 30.08 in 10.0 mi WSW 13.8 mph 25.3 mph N/A   Mostly Cloudy
1:52 PM 64.9 °F - 30.9 °F 28% 30.06 in 10.0 mi West 18.4 mph 25.3 mph N/A   Scattered Clouds
2:52 PM 64.0 °F - 30.9 °F 29% 30.06 in 10.0 mi West 13.8 mph - N/A   Mostly Cloudy
3:52 PM 64.9 °F - 28.9 °F 26% 30.05 in 10.0 mi West 18.4 mph - N/A   Mostly Cloudy
5:52 PM 64.9 °F - 30.0 °F 27% 30.04 in 10.0 mi WNW 13.8 mph - N/A   Scattered Clouds
6:52 PM 64.9 °F - 30.0 °F 27% 30.04 in 10.0 mi West 13.8 mph - N/A   Overcast
7:52 PM 62.1 °F - 30.0 °F 30% 30.04 in 10.0 mi West 10.4 mph - N/A   Mostly Cloudy
8:52 PM 54.0 °F - 30.9 °F 41% 30.06 in 9.0 mi WSW 9.2 mph - N/A   Mostly Cloudy
9:52 PM 50.0 °F - 30.0 °F 46% 30.07 in 10.0 mi SW 10.4 mph - N/A   Scattered Clouds
10:52 PM 46.9 °F - 30.0 °F 52% 30.08 in 10.0 mi SW 8.1 mph - N/A   Partly Cloudy
11:52 PM 44.1 °F 40.1 °F 28.9 °F 55% 30.09 in 10.0 mi WSW 6.9 mph - N/A   Clear